Flag for U.S.A. Weather past 2 weeks in Hampton, Virginia, U.S.A.

Now
57 °F

Passing clouds.


Feels Like: 56 °F
Forecast: 59 / 71 °F
Wind: 6 mph from South

Location: Langley Air Force Base

Current Time: Oct 20, 2014 at 9:41:44 PM

Latest Report: Oct 20, 2014 at 8:58 PM


Visibility: 10 mi

Pressure: 30.02 "Hg

Humidity: 87%

Dew point: 53 °F

Location of HamptonLocation

Historic Weather in Hampton — Graph

°F

Hampton temperature yesterday

Maximum temperature yesterday: 62 °F (at 2:58 PM)
Minimum temperature yesterday: 45 °F (at 9:58 PM)
Average temperature yesterday: 55 °F

Past Weeks' High & Low Weather Summary

 TemperatureHumidityPressure
High83 °F (Oct 14, 3:58 PM)100% (Oct 8, 5:58 AM)30.30 "Hg (Oct 8, 5:58 AM)
Low41 °F (Oct 20, 5:58 AM)33% (Oct 6, 2:58 PM)29.71 "Hg (Oct 18, 4:58 AM)
Average66 °F76%30.02 "Hg
* Reported Oct 5 7:58 PM — Oct 20 7:58 PM, Hampton, Weather by CustomWeather, © 2014

Note: Actual official high and low records may vary slightly from our data, if they occured in-between our weather recording intervals... More about our weather records

Advertising

Hampton weather history for previous 24 hours

 ConditionsComfort  
Time TempWeatherWind HumidityBarometerVisibility
7:58 PM
Oct 20
57 °FMostly cloudy.6 mph78%30.03 "Hg10 mi
6:58 PM63 °FPartly sunny.6 mph58%30.02 "Hg10 mi
5:58 PM64 °FPassing clouds.6 mph51%30.02 "Hg10 mi
4:58 PM67 °FSunny.8 mph42%30.02 "Hg10 mi
3:58 PM68 °FSunny.12 mph35%30.03 "Hg10 mi
2:58 PM66 °FSunny.10 mph35%30.06 "Hg10 mi
1:58 PM65 °FSunny.15 mph39%30.08 "Hg10 mi
12:58 PM64 °FSunny.13 mph42%30.12 "Hg10 mi
11:58 AM62 °FPassing clouds.13 mph42%30.16 "Hg10 mi
10:58 AM61 °FSunny.12 mph49%30.18 "Hg10 mi
9:58 AM58 °FSunny.12 mph58%30.19 "Hg10 mi
8:58 AM53 °FSunny.7 mph84%30.20 "Hg10 mi
7:58 AM47 °FClear.6 mph100%30.18 "Hg10 mi
6:58 AM42 °FClear.5 mph100%30.17 "Hg10 mi
5:58 AM41 °FClear.5 mph100%30.16 "Hg10 mi
4:58 AM42 °FClear.3 mph100%30.15 "Hg10 mi
3:58 AM42 °FClear.5 mph100%30.15 "Hg10 mi
2:58 AM42 °FClear.5 mph99%30.15 "Hg10 mi
1:58 AM44 °FClear.1 mph96%30.15 "Hg10 mi
12:58 AM46 °FClear.2 mph97%30.15 "Hg10 mi
10:58 PM
Oct 19
46 °FClear.3 mph84%30.15 "Hg10 mi
9:58 PM45 °FClear.5 mph89%30.15 "Hg10 mi
Weather by CustomWeather, © 2014

See weather overviewHow to use our weather pages